Regional Weather Roundup
Issued by NWS

Home | Current Version | Previous Version | Graphics & Text | Print | Product List | Glossary On
Versions: 1 2 3 4 5 6 7 8 9 10 11 12 13 14 15 16 17 18 19 20 21 22 23 24 25 26 27 28 29 30 31 32 33 34 35 36 37 38 39 40 41 42 43 44 45 46 47 48 49 50
000
ASUS45 KBOU 061507
RWRCO

WEATHER ROUNDUP FOR COLORADO
NATIONAL WEATHER SERVICE DENVER/BOULDER CO
900 AM MDT FRI MAY 06 2016

NOTE: "FAIR" INDICATES FEW OR NO CLOUDS BELOW 12000 FEET WITH NO
SIGNIFICANT WEATHER AND/OR OBSTRUCTIONS TO VISIBILITY.

COZ001>005-013-030-031-061600-
...NORTHWEST COLORADO...

CITY           SKY/WX    TMP DP  RH WIND       PRES   REMARKS
CRAIG          CLOUDY    60  36  40 VRB5      30.03F
HAYDEN         FAIR      59  36  41 SE10      30.04F
MEEKER         LGT RAIN  56  41  57 S13G37    30.08R
MOUNT WERNER   NOT AVBL
STEAMBOAT SPGS PTSUNNY   49  35  59 CALM      30.07S
WALDEN         FAIR      54  32  43 E6        30.16S
$$

COZ006>008-011-061600-
...WEST CENTRAL VALLEYS...

CITY           SKY/WX    TMP DP  RH WIND       PRES   REMARKS
GRAND JUNCTION FAIR      69  38  32 SE10      29.89F
MONTROSE       PTSUNNY   65  36  34 SE15G24   29.98S
EAGLE          PTSUNNY   54  32  43 W6        30.11R
RIFLE          PTSUNNY   55  42  61 W5        30.01F
DELTA          NOT AVBL
NUCLA          NOT AVBL
$$

COZ017>023-064>068-061600-
...SOUTHWEST COLORADO...

CITY           SKY/WX    TMP DP  RH WIND       PRES   REMARKS
DURANGO        FAIR      62  33  33 SE14      30.03F
CORTEZ         FAIR      65  29  25 VRB5      29.98F
PAGOSA SPRINGS FAIR      60  30  32 CALM      30.12F
TELLURIDE      FAIR      55  32  42 S18G26    30.12F
WOLF CREEK PAS CLOUDY    37  28  70 S12G25    30.36S
$$

COZ009-010-012-014-032>034-037-058>063-061600-
...CENTRAL COLORADO...

CITY           SKY/WX    TMP DP  RH WIND       PRES   REMARKS
ASPEN          CLOUDY    54  34  46 S24G30    30.15R
BUENA VISTA    PTSUNNY   52  32  47 CALM      30.19R
COPPER MTN     NOT AVBL
BERTHOUD PASS  FAIR      37  30  75 E13G26    30.39F
COTTONWOOD PAS CLOUDY    50  27  40 S3        30.29R
GUNNISON       PTSUNNY   46  36  66 N8        30.19F
KREMMLING      FAIR      54  32  43 CALM      30.13F
LEADVILLE      FAIR      45  25  45 S10       30.24F
MONARCH PASS   LGT SNOW  34  28  80 MISG      30.47S
SALIDA         CLOUDY    50  35  56 NW5       30.26R
SUNLIGHT       PTSUNNY   41  34  75 NE5       30.29F
WILKERSON PASS FAIR      46  23  39 SW5       30.37S
$$

COZ069>075-061600-
...SAN LUIS VALLEY/SANGRE DE CRISTO MOUNTAINS...

CITY           SKY/WX    TMP DP  RH WIND       PRES   REMARKS
ALAMOSA        PTSUNNY   57  31  37 SE6       30.15F
LA VETA PASS   FAIR      46  25  42 SW3       30.29F
SAGUACHE       CLOUDY    52  30  43 W6        30.19F
$$

COZ035-036-038>040-061600-
...NORTHERN COLORADO FRONT RANGE...

CITY           SKY/WX    TMP DP  RH WIND       PRES   REMARKS
DENVER INTL AP PTSUNNY   63  41  44 W9        29.99F
DMNS CITY PARK   N/A     65  40  40 SW1G8     29.99F
AURORA         FAIR      62  39  42 SW6       30.01F
FRONT RANGE AP PTSUNNY   63  39  42 SW10      30.00S
ERIE MUNI ARPT FAIR      60  44  56 CALM      29.99S
BOULDER MUN AP FAIR      63  39  42 CALM      29.98F
CENTENNIAL     FAIR      64  35  34 W10       30.01F
BROOMFIELD     PTSUNNY   63  39  42 NW7       30.01S
FORT COLLINS   FAIR      57  45  62 N6        29.99F
LONGMONT       FAIR      64  44  48 CALM      30.00S
$$

COZ041-046-047-076>085-087-088-061600-
...PIKES PEAK/PALMER DIVIDE AND SOUTHERN FOOTHILLS...

CITY           SKY/WX    TMP DP  RH WIND       PRES   REMARKS
COLO. SPRINGS  FAIR      62  36  37 SE3       30.07S
A. F. ACADEMY  MOSUNNY   63  36  36 S6        30.07F
SCHRIEVER AFB  NOT AVBL
ELLICOTT       FAIR     N/A N/A N/A SW6       30.05S
FALCON         NOT AVBL
FORT CARSON    FAIR      62  42  47 NE2       30.04S
LIMON          FAIR      54  46  74 VRB5      30.03S
MONUMENT HILL  FAIR      66  32  28 S7        30.10S
TRINIDAD       FAIR      65  27  23 W24G30    30.06R
$$

COZ042>045-048>051-090-091-061600-
...NORTHEAST COLORADO...

CITY           SKY/WX    TMP DP  RH WIND       PRES   REMARKS
GREELEY ARPT   FAIR      57  46  67 N3        29.98F
AKRON          FAIR      59  47  64 SE7       29.97F
BURLINGTON     FAIR      60  46  59 S15       29.99S
WRAY           NOT AVBL
STERLING       FAIR      63  50  63 S7        29.95S
HOLYOKE        NOT AVBL
FORT MORGAN    FAIR      58  45  62 SE5       29.97S
$$

COZ086-089-092>099-061600-
...SOUTHEAST COLORADO...

CITY           SKY/WX    TMP DP  RH WIND       PRES   REMARKS
PUEBLO         FAIR      63  43  48 CALM      30.00F
LA JUNTA       FAIR      63  44  50 SE3       29.99F
LAMAR          FAIR      64  48  56 NE5       29.98S
SPRINGFIELD      N/A     72  30  21 SW25G33   30.02F
$$



USA.gov is the U.S. government's official web portal to all federal, state and local government web resources and services.